[[{"header":{"parameterUnit":"m.s-1","parameterCategory":1,"la1":30.2991,"la2":30.254,"lo1":-89.0895,"lo2":-89.0444,"dy":0.0017,"dx":0.0017,"nx":28,"ny":28,"refTime":"2024-12-13T03:00:00:Z","depth":0,"parameterNumber":2,"parameterNumberName":"U-component_of_WINDS"},"data":[0,0,0,0,0,0,0,0,0,0,0,0,0,0,0,0,0,0,0,0,0,0,0,0,0,0,0,0,0,0,0,0,0,0,0,0,0,0,0,0,0,0,0,0,0,0,0,0,0,0,0,0,0,0,0,0,0,0,-6.8686,-6.8686,0,-6.8725,-6.8726,-6.8726,-6.8612,-6.8608,-6.8605,-6.8602,-6.8643,-6.8647,-6.8651,0,0,0,0,0,0,0,0,0,0,0,0,0,-6.8513,-6.8517,-6.8686,-6.8686,-6.8687,-6.8725,-6.8726,-6.8726,-6.8613,-6.8608,-6.8604,-6.86,-6.8641,-6.8646,-6.8652,0,0,0,0,0,0,0,0,0,0,0,0,0,-6.8574,-6.8518,-6.8686,-6.8635,-6.863,-6.8725,-6.8726,-6.8726,-6.8614,-6.8608,-6.8603,-6.8598,-6.864,-6.8646,-6.8652,-6.8798,0,0,-6.8672,-6.8675,0,0,0,0,0,0,0,0,-6.8571,-6.8581,-6.8642,-6.8638,-6.8634,-6.8658,-6.868,-6.8751,-6.8615,-6.862,-6.8602,-6.8595,-6.8652,-6.8657,-6.8676,-6.88,-6.8802,-6.8673,-6.8677,-6.868,-6.8682,0,0,0,0,0,0,0,-6.8567,-6.8578,-6.8701,-6.8643,-6.8638,-6.861,-6.8613,-6.8693,-6.8665,-6.8619,-6.8611,-6.8617,-6.8649,-6.867,-6.8677,-6.8803,-6.8673,-6.8679,-6.8683,-6.8685,-6.9049,-6.9055,0,0,0,0,0,0,-6.8569,-6.8575,-6.87,-6.8703,-6.8589,-6.8618,-6.8621,-6.8656,-6.8664,-6.866,-6.8622,-6.8612,-6.8662,-6.8669,-6.8678,-6.8849,-6.868,-6.8686,-6.869,-6.9044,-6.9051,-6.9057,0,0,0,0,0,0,-6.8566,-6.8581,-6.8698,-6.8637,-6.865,-6.8626,-6.8667,-6.8659,-6.868,-6.8666,-6.866,-6.8648,-6.8658,-6.8668,-6.8769,-6.8848,-6.8689,-6.8695,-6.9037,-6.9046,-6.9054,-6.9193,0,0,0,0,0,0,-6.8561,-6.8581,-6.8635,-6.8639,-6.8653,-6.8789,-6.8671,-6.8664,-6.8692,-6.8679,-6.8689,-6.8686,-6.8655,-6.876,-6.8776,-6.8855,-6.87,-6.903,-6.9041,-6.9051,-6.9181,-6.9205,-6.9226,0,0,0,0,0,-6.8555,-6.8673,-6.8639,-6.8654,-6.8721,-6.8794,-6.8802,-6.8763,-6.8699,-6.8754,-6.8745,-6.8686,-6.8838,-6.8772,-6.8788,-6.887,-6.9024,-6.9038,-6.905,-6.9171,-6.92,-6.9225,0,0,0,0,0,0,-6.8678,-6.8672,-6.8634,-6.8756,-6.8777,-6.8775,-6.8842,-6.8796,-6.8835,-6.8822,-6.8772,-6.8775,-6.8886,-6.8888,-6.8814,-6.9013,-6.892,-6.8937,-6.9006,-6.9034,-6.9056,-6.9052,-6.8705,0,0,0,0,0,-6.872,-6.878,-6.8771,-6.8879,-6.8892,-6.8866,-6.8896,-6.8865,-6.8884,-6.8892,-6.889,-6.8912,-6.8964,-6.8999,-6.9047,-6.9182,-6.9182,-6.9247,-6.9269,-6.9288,-6.9302,-6.9374,-6.9402,-6.9099,-6.9099,-6.9099,0,0,-6.8806,-6.881,-6.885,-6.8904,-6.8916,-6.8979,-6.8874,-6.8945,-6.8991,-6.8903,-6.8997,-6.8998,-6.9018,-6.9137,-6.9189,-6.9143,-6.9386,-6.9304,-6.9319,-6.9323,-6.939,-6.9419,-6.9444,-6.9108,-6.9106,-6.9105,0,0,-6.8994,-6.9003,-6.9094,-6.911,-6.913,-6.9112,-6.9135,-6.9141,-6.9137,-6.9232,-6.9167,-6.9222,-6.9314,-6.9331,-6.9352,-6.955,-6.9497,-6.9568,-6.9683,-6.9754,-6.9778,-6.9799,-6.9869,-6.9894,-6.9583,-6.9583,-6.9583,0,-6.9097,-6.9189,-6.9147,-6.9223,-6.9249,-6.9173,-6.9266,-6.9282,-6.9317,-6.9337,-6.9285,-6.9399,-6.9407,-6.9529,-6.9578,-6.9598,-6.9622,-6.9565,-6.9778,-6.9798,-6.9817,-6.9883,-6.991,-6.9591,-6.959,-6.9589,-6.9589,0,-6.9316,-6.9381,-6.9453,-6.9489,-6.9523,-6.9607,-6.9578,-6.9618,-6.9585,-6.9574,-6.9672,-6.968,-6.9728,-6.9755,-6.9723,-6.9873,-6.9844,-6.9786,-6.9692,-6.9855,-6.9916,-6.9941,-6.9603,-6.96,-6.9598,-6.9596,0,0,-6.9579,-6.9593,-6.9619,-6.9635,-6.9653,-6.9703,-6.9785,-6.9832,-6.9867,-6.9895,-6.9962,-7.0042,-6.9989,-7.0013,-6.9983,-7.0046,-7.0202,-6.998,-6.9979,-7.0019,-7.0367,-7.0409,-7.0439,-7.0168,-7.0173,-7.0176,-7.0365,0,-6.9763,-6.9902,-6.9868,-7.0005,-7.0065,-6.9996,-7.0067,-7.0086,-7.0079,-7.0129,-7.0121,-7.0178,-7.0104,-7.0118,-7.0177,-7.017,-7.027,-7.0156,-7.0229,-7.0232,-7.0224,-7.0471,-7.0515,-7.0692,-7.0389,-7.0393,-7.0396,0,-6.9995,-7.0033,-7.0176,-7.0186,-7.021,-7.0274,-7.0315,-7.0365,-7.0386,-7.0376,-7.0405,-7.0363,-7.0444,-7.0352,-7.0463,-7.0386,-7.0415,-7.0417,-7.0422,-7.0425,-7.0322,-7.0479,-7.0748,-7.0774,-7.0433,-7.043,-7.0427,0,-7.0171,-7.0258,-7.0354,-7.0371,-7.0385,-7.0431,-7.044,-7.0456,-7.0487,-7.0524,-7.0544,-7.059,-7.0615,-7.0652,-7.0624,-7.056,-7.0741,-7.0646,-7.0734,-7.0735,-7.0773,-7.077,-7.1048,-7.0795,-7.0795,-7.0794,-7.0794,0,-7.0379,-7.0469,-7.0434,-7.0493,-7.0593,-7.0554,-7.0654,-7.0654,-7.067,-7.0729,-7.0673,-7.073,-7.0691,-7.0744,-7.0724,-7.0819,-7.0831,-7.0825,-7.0818,-7.0829,-7.083,-7.0845,-7.0831,-7.0801,-7.08,-7.0799,-7.0797,0,-7.059,-7.057,-7.0671,-7.0677,-7.0681,-7.0754,-7.0759,-7.0815,-7.0805,-7.088,-7.0896,-7.088,-7.094,-7.0917,-7.0982,-7.0968,-7.1089,-7.1067,-7.1082,-7.1075,-7.1164,-7.1156,-7.1459,-7.1497,-7.1223,-7.1226,-7.1228,0,-7.0722,-7.079,-7.0804,-7.084,-7.0852,-7.091,-7.0942,-7.0908,-7.0943,-7.0975,-7.1027,-7.1083,-7.1125,-7.1226,-7.122,-7.1269,-7.1247,-7.135,-7.1253,-7.1262,-7.1246,-7.1241,-7.1248,-7.1368,-7.1371,-7.1374,-7.1376,0,-7.0959,-7.0946,-7.0994,-7.104,-7.108,-7.1114,-7.1144,-7.1176,-7.1144,-7.1187,-7.1249,-7.1282,-7.1349,-7.1405,-7.145,-7.1458,-7.1412,-7.1407,-7.143,-7.144,-7.1445,-7.1442,-7.1132,-7.1399,-7.1397,-7.1395,-7.1394,-7.1393,-7.1133,-7.119,-7.1209,-7.1265,-7.1285,-7.1314,-7.1367,-7.1364,-7.1415,-7.1466,-7.1444,-7.1515,-7.1536,-7.1592,-7.1608,-7.1663,-7.1623,-7.1656,-7.1664,-7.1672,-7.1683,-7.1439,-7.1672,-7.1671,-7.167,-7.167,-7.1669,0,-7.1365,-7.1374,-7.1427,-7.147,-7.1515,-7.1469,-7.15,-7.154,-7.1604,-7.1628,-7.1672,-7.1743,-7.1798,-7.1798,-7.185,-7.1894,-7.1874,-7.1909,-7.1903,-7.1906,-7.1717,-7.1691,-7.1924,-7.1924,-7.1924,-7.1924,-7.1924,-7.1924,-7.149,-7.1585,-7.1575,-7.168,-7.1689,-7.1758,-7.178,-7.1807,-7.1826,-7.1908,-7.1954,-7.1954,-7.1969,-7.2022,-7.207,-7.2069,-7.209,-7.2132,-7.2123,-7.1945,-7.192,-7.1895,-7.1871,-7.2137,-7.2138,-7.2307,-7.2308,-7.231]},{"header":{"parameterUnit":"m.s-1","parameterCategory":1,"la1":30.2991,"la2":30.254,"lo1":-89.0895,"lo2":-89.0444,"dy":0.0017,"dx":0.0017,"nx":28,"ny":28,"refTime":"2024-12-13T03:00:00:Z","depth":0,"parameterNumber":3,"parameterNumberName":"V-component_of_WINDS"},"data":[0,0,0,0,0,0,0,0,0,0,0,0,0,0,0,0,0,0,0,0,0,0,0,0,0,0,0,0,0,0,0,0,0,0,0,0,0,0,0,0,0,0,0,0,0,0,0,0,0,0,0,0,0,0,0,0,0,0,0.1214,0.1215,0,0.13,0.1301,0.1302,0.1372,0.1373,0.1374,0.1374,0.1461,0.1463,0.1465,0,0,0,0,0,0,0,0,0,0,0,0,0,0.1112,0.1114,0.1214,0.1215,0.1216,0.1299,0.1301,0.1302,0.1372,0.1373,0.1374,0.1375,0.1461,0.1463,0.1465,0,0,0,0,0,0,0,0,0,0,0,0,0,0.1173,0.1114,0.1214,0.1261,0.1266,0.1299,0.1301,0.1302,0.1372,0.1373,0.1374,0.1375,0.146,0.1463,0.1465,0.1458,0,0,0.1472,0.1474,0,0,0,0,0,0,0,0,0.1169,0.1177,0.1253,0.1258,0.1264,0.1326,0.1297,0.1354,0.1372,0.1332,0.1374,0.1376,0.1416,0.1422,0.1435,0.1462,0.1465,0.1473,0.1474,0.1475,0.1476,0,0,0,0,0,0,0,0.1165,0.1173,0.1248,0.1254,0.1261,0.1279,0.1288,0.1308,0.1366,0.1335,0.1341,0.135,0.1419,0.1433,0.1438,0.1467,0.1473,0.1475,0.1476,0.1477,0.1494,0.1493,0,0,0,0,0,0,0.1153,0.1169,0.1245,0.125,0.1218,0.1279,0.1291,0.1305,0.1366,0.1377,0.1349,0.1353,0.1428,0.1435,0.1441,0.1439,0.1475,0.1477,0.1479,0.1495,0.1494,0.1492,0,0,0,0,0,0,0.1151,0.116,0.1242,0.1211,0.1223,0.128,0.1296,0.1306,0.1321,0.1377,0.1387,0.1353,0.1429,0.1438,0.1454,0.1443,0.1479,0.1481,0.1496,0.1494,0.1493,0.1432,0,0,0,0,0,0,0.1148,0.1158,0.1156,0.1211,0.1225,0.1252,0.1295,0.1307,0.1325,0.1331,0.1383,0.1393,0.1431,0.145,0.1456,0.1447,0.1483,0.1497,0.1495,0.1493,0.1435,0.1428,0.1422,0,0,0,0,0,0.1144,0.1134,0.1155,0.1164,0.1223,0.1251,0.1259,0.1304,0.1323,0.1322,0.1358,0.1391,0.1442,0.1451,0.1458,0.1449,0.1498,0.1496,0.1494,0.1438,0.143,0.1423,0,0,0,0,0,0,0.1076,0.1142,0.1166,0.1174,0.1207,0.1263,0.1263,0.1293,0.1321,0.1325,0.1379,0.139,0.1401,0.1426,0.1434,0.1447,0.1475,0.1474,0.143,0.1422,0.1416,0.141,0.1485,0,0,0,0,0,0.1062,0.108,0.1137,0.1138,0.1154,0.1205,0.1219,0.1251,0.1287,0.1301,0.1338,0.1371,0.1396,0.141,0.1435,0.1439,0.1452,0.1436,0.143,0.1425,0.1424,0.143,0.1424,0.1485,0.1485,0.1485,0,0,0.1033,0.1072,0.108,0.1126,0.1155,0.1173,0.1216,0.1233,0.1247,0.1303,0.1321,0.1349,0.139,0.1401,0.1407,0.1423,0.141,0.1422,0.1417,0.1419,0.1427,0.1421,0.1416,0.1483,0.1484,0.1484,0,0,0.099,0.102,0.1026,0.1055,0.1098,0.1133,0.1134,0.1186,0.1208,0.1226,0.127,0.1287,0.1326,0.1355,0.1374,0.1343,0.1375,0.135,0.1318,0.1323,0.1318,0.1314,0.1305,0.1301,0.1348,0.1348,0.1348,0,0.0949,0.0978,0.1025,0.104,0.106,0.1112,0.1119,0.1144,0.1193,0.1206,0.1222,0.1275,0.1306,0.1324,0.1317,0.133,0.1335,0.1345,0.1315,0.1312,0.1309,0.1301,0.1297,0.1345,0.1345,0.1346,0.1346,0,0.0926,0.0945,0.0945,0.0992,0.1012,0.1022,0.1072,0.1086,0.1116,0.1149,0.1168,0.1207,0.1242,0.1248,0.1277,0.1272,0.128,0.1305,0.1335,0.1299,0.1293,0.129,0.134,0.1341,0.1342,0.1343,0,0,0.0843,0.0917,0.0917,0.094,0.0992,0.1008,0.1021,0.1056,0.1068,0.11,0.1114,0.1146,0.1171,0.1192,0.1225,0.1229,0.1205,0.1254,0.1256,0.1245,0.1204,0.1186,0.1182,0.1226,0.1225,0.1225,0.1201,0,0.081,0.0838,0.0882,0.0895,0.0915,0.0965,0.0977,0.101,0.1041,0.1063,0.1097,0.1121,0.1149,0.1163,0.117,0.1206,0.1198,0.1209,0.124,0.1241,0.123,0.1178,0.1159,0.1135,0.1199,0.1198,0.1198,0,0.0776,0.0806,0.0822,0.0875,0.0885,0.0894,0.0931,0.095,0.099,0.1012,0.1037,0.1073,0.1091,0.1116,0.1142,0.1149,0.1164,0.1184,0.1184,0.1191,0.1218,0.1185,0.1128,0.1124,0.1194,0.1194,0.1195,0,0.0717,0.0761,0.0777,0.0795,0.0856,0.0862,0.0888,0.0929,0.0947,0.0979,0.0992,0.1024,0.1043,0.1067,0.1111,0.1126,0.1133,0.1162,0.1153,0.1152,0.1154,0.1154,0.1101,0.116,0.116,0.1161,0.1161,0,0.0677,0.0685,0.0752,0.0761,0.0773,0.0823,0.0832,0.0862,0.0898,0.0916,0.096,0.0975,0.1032,0.1054,0.1088,0.1105,0.1112,0.1132,0.1141,0.1129,0.1127,0.1141,0.1145,0.116,0.116,0.116,0.116,0,0.0613,0.0658,0.0679,0.0735,0.075,0.0755,0.0804,0.0816,0.085,0.0871,0.0879,0.0932,0.0961,0.1007,0.1048,0.1071,0.1083,0.1097,0.107,0.1076,0.1066,0.1067,0.1022,0.1019,0.1078,0.1078,0.1077,0,0.0585,0.0593,0.065,0.0666,0.069,0.0713,0.0733,0.0782,0.0801,0.0848,0.0854,0.0886,0.0914,0.0957,0.1,0.1032,0.1049,0.1031,0.1054,0.1042,0.1051,0.1051,0.1053,0.1026,0.1025,0.1024,0.1024,0,0.0532,0.0554,0.0581,0.0616,0.0638,0.0668,0.07,0.0709,0.0766,0.0785,0.0815,0.0837,0.088,0.0912,0.095,0.0977,0.1011,0.1016,0.1016,0.1005,0.0989,0.1,0.1058,0.1017,0.1018,0.1018,0.1019,0.1019,0.0487,0.0497,0.054,0.0569,0.0598,0.0627,0.0642,0.0678,0.0704,0.0743,0.0771,0.0799,0.084,0.0896,0.0921,0.0944,0.0959,0.0958,0.0959,0.0958,0.0955,0.0984,0.0951,0.0951,0.0952,0.0952,0.0952,0,0.0438,0.0469,0.0494,0.0538,0.0561,0.059,0.0627,0.0645,0.067,0.0705,0.0732,0.0768,0.0799,0.0844,0.0879,0.0889,0.0905,0.0897,0.0897,0.0904,0.0939,0.0936,0.0883,0.0883,0.0883,0.0883,0.0883,0.0883,0.0416,0.0435,0.0462,0.0497,0.0527,0.0556,0.0575,0.0603,0.0632,0.0669,0.0696,0.0725,0.0765,0.0803,0.0833,0.0846,0.0858,0.0845,0.0862,0.0894,0.0901,0.0907,0.0905,0.0846,0.0846,0.0826,0.0825,0.0825]}]]